User: anonymous   Login
Location: La Pernelle
(49.6188°N, 1.2999°W)
Time: 06:02:19
(UTC+00:00)
Language:

BREEZE-M DEB (TANK) - Orbit

View from above orbital plane
View from above orbital plane
View from above satellite
View from above satellite

Ground track
Ground track

The orbit data is extracted from the following two-line orbital elements,

1 37187U 10053C   21265.48958690  .00003982  00000-0  83789-3 0  9990
2 37187  49.5346  93.8521 5194352 112.6419 309.1351  5.28587168209272
Epoch (UTC): 22 September 2021 11:45:00
Eccentricity: 0.5194352
inclination: 49.5346°
perigee height: 311 km
apogee height: 14773 km
right ascension of ascending node: 93.8521°
argument of perigee: 112.6419°
revolutions per day: 5.28587168
mean anomaly at epoch: 309.1351°
orbit number at epoch: 20927

The dashed part of the orbit path shows where the satellite is in the earth's shadow,  

DLR